FWI420 TFFR-TFFF

Flight info

Callsign FWI420
Flight time 0h 32m
Altitude 12000
Route KATIM2F KATIM DCT KAREX DCT FOF
Aircraft AT76/M-SDFGIRY/S

Departure

Time 2026-05-08 15:40
Airport Maryse Condé International Airport (TFFR)

Arrival

Time 2026-05-08 16:13
Airport Martinique Aimé Césaire International Airport (TFFF)
Time Latitude Longitude Altitude Speed Heading
2026-05-08 15:34 16.26876 -61.52986 20 ft 7 kts 132°
2026-05-08 15:35 16.26865 -61.52952 18 ft 4 kts 106°
2026-05-08 15:35 16.26861 -61.52940 18 ft 2 kts 110°
2026-05-08 15:35 16.26838 -61.52921 18 ft 4 kts 163°
2026-05-08 15:35 16.26780 -61.52942 18 ft 13 kts 192°
2026-05-08 15:36 16.26718 -61.52954 18 ft 14 kts 190°
2026-05-08 15:36 16.26619 -61.52972 19 ft 15 kts 189°
2026-05-08 15:36 16.26513 -61.53000 16 ft 17 kts 214°
2026-05-08 15:36 16.26509 -61.53083 17 ft 14 kts 284°
2026-05-08 15:37 16.26535 -61.53196 17 ft 18 kts 281°
2026-05-08 15:37 16.26559 -61.53333 15 ft 20 kts 279°
2026-05-08 15:37 16.26585 -61.53484 18 ft 22 kts 281°
2026-05-08 15:37 16.26614 -61.53635 20 ft 21 kts 281°
2026-05-08 15:38 16.26642 -61.53790 16 ft 22 kts 280°
2026-05-08 15:38 16.26672 -61.53949 15 ft 23 kts 281°
2026-05-08 15:38 16.26703 -61.54116 13 ft 24 kts 281°
2026-05-08 15:38 16.26736 -61.54292 11 ft 24 kts 281°
2026-05-08 15:39 16.26712 -61.54395 9 ft 11 kts 262°
2026-05-08 15:39 16.26740 -61.54424 10 ft 1 kts 18°
2026-05-08 15:39 16.26752 -61.54386 11 ft 5 kts 99°
2026-05-08 15:39 16.26744 -61.54342 11 ft 28 kts 100°
2026-05-08 15:40 16.26666 -61.53922 15 ft 89 kts 101°
2026-05-08 15:40 16.26527 -61.53144 210 ft 116 kts 97°
2026-05-08 15:40 16.26372 -61.52323 767 ft 115 kts 97°
2026-05-08 15:40 16.26232 -61.51459 953 ft 135 kts 97°
2026-05-08 15:41 16.26027 -61.50400 988 ft 159 kts 98°
2026-05-08 15:41 16.25814 -61.49232 1268 ft 161 kts 97°
2026-05-08 15:41 16.25592 -61.48093 1721 ft 162 kts 97°
2026-05-08 15:41 16.25376 -61.46921 2062 ft 168 kts 98°
2026-05-08 15:42 16.25146 -61.45740 2560 ft 166 kts 98°
2026-05-08 15:42 16.24902 -61.44573 2997 ft 170 kts 98°
2026-05-08 15:42 16.24687 -61.43369 3436 ft 168 kts 97°
2026-05-08 15:42 16.24313 -61.42164 3532 ft 188 kts 122°
2026-05-08 15:43 16.23141 -61.41432 3583 ft 217 kts 165°
2026-05-08 15:43 16.21607 -61.41611 4011 ft 218 kts 193°
2026-05-08 15:43 16.20195 -61.42023 4574 ft 205 kts 190°
2026-05-08 15:43 16.18810 -61.42304 5028 ft 198 kts 185°
2026-05-08 15:44 16.17454 -61.42466 5419 ft 195 kts 180°
2026-05-08 15:44 16.16105 -61.42508 5778 ft 194 kts 176°
2026-05-08 15:44 16.14763 -61.42482 6136 ft 193 kts 172°
2026-05-08 15:44 16.13413 -61.42406 6462 ft 195 kts 171°
2026-05-08 15:45 16.12057 -61.42316 6765 ft 196 kts 171°
2026-05-08 15:45 16.10686 -61.42211 7030 ft 199 kts 170°
2026-05-08 15:45 16.09297 -61.42100 7328 ft 200 kts 172°
2026-05-08 15:45 16.07917 -61.41975 7638 ft 200 kts 172°
2026-05-08 15:46 16.06536 -61.41852 7888 ft 203 kts 170°
2026-05-08 15:46 16.05123 -61.41727 8164 ft 205 kts 173°
2026-05-08 15:46 16.03715 -61.41592 8490 ft 204 kts 173°
2026-05-08 15:46 16.02294 -61.41469 8774 ft 205 kts 173°
2026-05-08 15:47 16.00857 -61.41359 9028 ft 208 kts 174°
2026-05-08 15:47 15.99387 -61.41283 9284 ft 211 kts 175°
2026-05-08 15:47 15.97926 -61.41229 9585 ft 211 kts 175°
2026-05-08 15:47 15.96426 -61.41208 9802 ft 216 kts 177°
2026-05-08 15:48 15.93413 -61.41171 10346 ft 215 kts 178°
2026-05-08 15:48 15.91903 -61.41157 10539 ft 220 kts 178°
2026-05-08 15:48 15.90392 -61.41139 10830 ft 217 kts 178°
2026-05-08 15:49 15.88887 -61.41121 11096 ft 215 kts 178°
2026-05-08 15:49 15.87406 -61.41105 11294 ft 218 kts 178°
2026-05-08 15:49 15.85878 -61.41086 11515 ft 219 kts 178°
2026-05-08 15:49 15.84352 -61.41067 11738 ft 220 kts 178°
2026-05-08 15:50 15.82818 -61.41049 11901 ft 224 kts 178°
2026-05-08 15:50 15.81231 -61.41027 11965 ft 233 kts 179°
2026-05-08 15:50 15.79572 -61.41011 11994 ft 241 kts 179°
2026-05-08 15:50 15.77871 -61.40997 12013 ft 249 kts 179°
2026-05-08 15:51 15.76115 -61.40981 12008 ft 254 kts 179°
2026-05-08 15:51 15.74334 -61.40971 12018 ft 258 kts 179°
2026-05-08 15:51 15.72525 -61.40959 12011 ft 261 kts 179°
2026-05-08 15:51 15.70691 -61.40939 12017 ft 264 kts 178°
2026-05-08 15:52 15.68841 -61.40913 12027 ft 266 kts 179°
2026-05-08 15:52 15.66983 -61.40881 12013 ft 267 kts 178°
2026-05-08 15:52 15.65123 -61.40859 12020 ft 268 kts 179°
2026-05-08 15:52 15.63257 -61.40837 12002 ft 268 kts 179°
2026-05-08 15:53 15.61388 -61.40818 12008 ft 269 kts 179°
2026-05-08 15:53 15.59532 -61.40797 11998 ft 270 kts 179°
2026-05-08 15:53 15.57646 -61.40776 11998 ft 270 kts 178°
2026-05-08 15:53 15.55766 -61.40749 11999 ft 270 kts 178°
2026-05-08 15:54 15.53879 -61.40725 12000 ft 270 kts 179°
2026-05-08 15:54 15.52005 -61.40701 12002 ft 269 kts 179°
2026-05-08 15:54 15.50130 -61.40682 12005 ft 269 kts 179°
2026-05-08 15:54 15.48255 -61.40659 12005 ft 269 kts 178°
2026-05-08 15:55 15.46375 -61.40637 11977 ft 271 kts 178°
2026-05-08 15:55 15.42644 -61.40585 11992 ft 269 kts 179°
2026-05-08 15:55 15.40770 -61.40565 11984 ft 269 kts 179°
2026-05-08 15:56 15.38913 -61.40537 11993 ft 269 kts 176°
2026-05-08 15:56 15.37051 -61.40308 11993 ft 268 kts 170°
2026-05-08 15:56 15.35216 -61.39965 11983 ft 268 kts 169°
2026-05-08 15:56 15.33380 -61.39620 11982 ft 267 kts 169°
2026-05-08 15:57 15.31547 -61.39318 11981 ft 267 kts 171°
2026-05-08 15:57 15.29708 -61.39035 11984 ft 267 kts 171°
2026-05-08 15:57 15.27869 -61.38756 11983 ft 267 kts 171°
2026-05-08 15:57 15.26041 -61.38477 11980 ft 266 kts 171°
2026-05-08 15:58 15.24240 -61.38201 11982 ft 266 kts 171°
2026-05-08 15:58 15.22402 -61.37921 11982 ft 266 kts 171°
2026-05-08 15:58 15.20584 -61.37644 11981 ft 265 kts 171°
2026-05-08 15:58 15.18751 -61.37363 11979 ft 265 kts 171°
2026-05-08 15:59 15.16923 -61.37087 11979 ft 265 kts 171°
2026-05-08 15:59 15.15128 -61.36813 11983 ft 265 kts 171°
2026-05-08 15:59 15.13268 -61.36528 11982 ft 265 kts 171°
2026-05-08 15:59 15.11445 -61.36251 11979 ft 265 kts 171°
2026-05-08 16:00 15.09617 -61.35975 11790 ft 273 kts 171°
2026-05-08 16:00 15.07710 -61.35685 11526 ft 281 kts 171°
2026-05-08 16:00 15.05775 -61.35389 11459 ft 279 kts 170°
2026-05-08 16:00 15.03857 -61.35098 11306 ft 281 kts 171°
2026-05-08 16:01 15.01912 -61.34801 10954 ft 281 kts 171°
2026-05-08 16:01 14.99985 -61.34520 10603 ft 279 kts 171°
2026-05-08 16:01 14.98066 -61.34242 10276 ft 277 kts 170°
2026-05-08 16:01 14.96166 -61.33975 9939 ft 275 kts 170°
2026-05-08 16:02 14.94264 -61.33698 9575 ft 273 kts 169°
2026-05-08 16:02 14.92400 -61.33407 9208 ft 271 kts 169°
2026-05-08 16:02 14.90525 -61.33127 8846 ft 271 kts 168°
2026-05-08 16:02 14.88668 -61.32833 8494 ft 268 kts 169°
2026-05-08 16:03 14.86829 -61.32541 8150 ft 267 kts 169°
2026-05-08 16:03 14.84999 -61.32257 7816 ft 265 kts 169°
2026-05-08 16:03 14.83202 -61.31978 7480 ft 265 kts 169°
2026-05-08 16:03 14.81378 -61.31707 7147 ft 264 kts 168°
2026-05-08 16:04 14.79557 -61.31438 6805 ft 263 kts 169°
2026-05-08 16:04 14.77755 -61.31164 6482 ft 262 kts 168°
2026-05-08 16:04 14.75951 -61.30884 6138 ft 261 kts 168°
2026-05-08 16:04 14.74148 -61.30610 5792 ft 261 kts 169°
2026-05-08 16:05 14.72354 -61.30331 5444 ft 260 kts 169°
2026-05-08 16:05 14.70599 -61.30069 5109 ft 259 kts 169°
2026-05-08 16:05 14.68822 -61.29800 4767 ft 259 kts 169°
2026-05-08 16:05 14.67026 -61.29529 4430 ft 258 kts 169°
2026-05-08 16:06 14.65246 -61.29261 4074 ft 258 kts 169°
2026-05-08 16:06 14.63471 -61.28987 3714 ft 258 kts 169°
2026-05-08 16:06 14.61696 -61.28720 3371 ft 258 kts 168°
2026-05-08 16:06 14.59923 -61.28452 3013 ft 257 kts 168°
2026-05-08 16:07 14.58156 -61.28184 2654 ft 256 kts 169°
2026-05-08 16:07 14.56464 -61.27811 2484 ft 241 kts 153°
2026-05-08 16:07 14.55275 -61.26705 2368 ft 226 kts 116°
2026-05-08 16:07 14.54966 -61.25176 2275 ft 215 kts 88°
2026-05-08 16:08 14.55091 -61.23658 2168 ft 211 kts 82°
2026-05-08 16:08 14.55312 -61.22169 2078 ft 208 kts 81°
2026-05-08 16:08 14.55556 -61.20702 2017 ft 207 kts 80°
2026-05-08 16:08 14.55811 -61.19249 1878 ft 210 kts 78°
2026-05-08 16:09 14.56153 -61.17774 1752 ft 211 kts 76°
2026-05-08 16:09 14.56373 -61.16778 1671 ft 210 kts 79°
2026-05-08 16:09 14.56657 -61.14801 1614 ft 210 kts 82°
2026-05-08 16:09 14.56883 -61.13320 1515 ft 208 kts 81°
2026-05-08 16:10 14.57155 -61.11854 1433 ft 207 kts 80°
2026-05-08 16:10 14.57416 -61.10398 1340 ft 206 kts 79°
2026-05-08 16:10 14.57632 -61.09046 1247 ft 176 kts 82°
2026-05-08 16:10 14.57826 -61.07895 1139 ft 150 kts 81°
2026-05-08 16:11 14.57992 -61.06873 935 ft 137 kts 80°
2026-05-08 16:11 14.58149 -61.05985 791 ft 116 kts 79°
2026-05-08 16:11 14.58275 -61.05206 663 ft 105 kts 77°
2026-05-08 16:11 14.58406 -61.04501 530 ft 97 kts 78°
2026-05-08 16:12 14.58534 -61.03807 402 ft 100 kts 80°
2026-05-08 16:12 14.58647 -61.03108 307 ft 99 kts 80°
2026-05-08 16:12 14.58745 -61.02380 158 ft 105 kts 78°
2026-05-08 16:12 14.58884 -61.01650 54 ft 100 kts 78°
2026-05-08 16:13 14.58993 -61.00989 25 ft 87 kts 78°
2026-05-08 16:13 14.59060 -61.00586 12 ft 18 kts 85°
2026-05-08 16:13 14.59081 -61.00466 11 ft 13 kts 79°
2026-05-08 16:13 14.59093 -61.00399 12 ft 7 kts 78°
2026-05-08 16:14 14.59107 -61.00323 13 ft 8 kts 81°
2026-05-08 16:14 14.59120 -61.00242 13 ft 19 kts 80°
2026-05-08 16:14 14.59146 -61.00086 14 ft 20 kts 80°
2026-05-08 16:14 14.59193 -61.00023 16 ft 16 kts 15°
2026-05-08 16:15 14.59282 -61.00035 16 ft 10 kts 346°
2026-05-08 16:15 14.59340 -61.00032 16 ft 7 kts 37°
2026-05-08 16:15 14.59356 -61.00003 17 ft 3 kts 75°
2026-05-08 16:15 14.59360 -60.99979 16 ft 8 kts 80°
2026-05-08 16:16 14.59367 -60.99939 17 ft 3 kts 78°
2026-05-08 16:16 14.59369 -60.99929 16 ft 0 kts 79°
2026-05-08 16:16 14.59376 -60.99889 16 ft 6 kts 80°
2026-05-08 16:16 14.59378 -60.99877 16 ft 0 kts 80°
2026-05-08 16:17 14.59394 -60.99861 16 ft 5 kts
2026-05-08 16:17 14.59430 -60.99850 16 ft 2 kts 59°
2026-05-08 16:18 14.59433 -60.99836 16 ft 0 kts 77°
2026-05-08 16:21 14.59433 -60.99837 16 ft 0 kts 77°